Location: Newark
(50.0306°N, 2.3272°E)
Time: 19:36:16
(UTC+00:00)

Envisat - Visible Passes

Search period start: 18 November 2019 00:00
Search period end: 28 November 2019 00:00
Orbit: 764 x 766 km, 98.1° (Epoch: 18 November)

Date Brightness Start Highest point End Pass type
(mag) Time Alt. Az. Time Alt. Az. Time Alt. Az.
18 Nov 3.3 17:55:49 10° S 18:00:52 68° WSW 18:05:58 10° NNW visible
18 Nov 6.3 19:40:29 10° W 19:40:52 10° W 19:41:15 10° WNW visible
19 Nov 5.1 06:00:18 10° NNE 06:04:47 30° E 06:09:14 10° SSE visible
19 Nov 3.0 17:19:07 10° SSE 17:24:07 62° ENE 17:29:08 10° N visible
19 Nov 5.4 18:59:45 10° SW 19:03:34 21° W 19:07:25 10° NW visible
20 Nov 6.0 05:24:37 10° NE 05:27:36 15° E 05:30:33 10° ESE visible
20 Nov 3.7 16:43:04 10° SE 16:47:33 32° ENE 16:52:03 10° N visible
20 Nov 4.3 18:21:41 10° SSW 18:26:29 41° W 18:31:18 10° NNW visible
21 Nov 4.2 06:25:30 10° NNE 06:30:27 49° E 06:35:22 10° S visible
21 Nov 3.0 17:44:29 10° SSE 17:49:35 83° WSW 17:54:42 10° NNW visible
21 Nov 6.1 19:27:10 10° WSW 19:29:25 13° W 19:31:41 10° WNW visible
22 Nov 5.5 05:49:14 10° NE 05:53:24 25° E 05:57:33 10° SSE visible
22 Nov 3.1 17:07:59 10° SE 17:12:53 51° ENE 17:17:48 10° N visible
22 Nov 5.1 18:47:59 10° SSW 18:52:11 26° W 18:56:24 10° NW visible
23 Nov 6.2 05:14:05 10° ENE 05:16:09 12° E 05:18:13 10° ESE visible
23 Nov 3.9 16:32:09 10° ESE 16:36:22 27° ENE 16:40:36 10° N visible
23 Nov 3.9 18:10:13 10° S 18:15:08 51° W 18:20:07 10° NNW visible
24 Nov 4.6 06:14:19 10° NNE 06:19:07 40° E 06:23:53 10° SSE visible
24 Nov 2.9 17:33:13 10° SSE 17:38:18 81° ENE 17:43:25 10° NNW visible
24 Nov 5.8 19:14:55 10° SW 19:17:59 16° W 19:21:04 10° NW visible
25 Nov 5.8 05:38:15 10° NE 05:42:00 20° E 05:45:46 10° SE visible
25 Nov 3.3 16:56:55 10° SE 17:01:39 42° ENE 17:06:26 10° N visible
25 Nov 4.8 18:36:19 10° SSW 18:40:48 31° W 18:45:20 10° NNW visible
26 Nov 3.6 06:39:38 10° NNE 06:44:44 66° ESE 06:49:46 10° S visible
26 Nov 3.5 17:58:48 10° S 18:03:50 63° WSW 18:08:54 10° NNW visible
27 Nov 5.0 06:03:11 10° NNE 06:07:46 33° E 06:12:19 10° SSE visible
27 Nov 2.9 17:22:01 10° SSE 17:27:03 67° ENE 17:32:07 10° N visible
27 Nov 5.5 19:02:55 10° SW 19:06:34 20° W 19:10:14 10° NW visible
